Voltar ao catálogo

STARLINK-30084

AtivoComunicaçõesVLEO
NORAD 56825·PAYLOAD·🇺🇸 United States

Lançado Jun 4, 2023 de Cape Canaveral Space Force Station

Loading…

Próximas Passagens (próximas 24 horas)

TLE

AtualizadoSource: CelesTrak SupGP

Época: Sep 15, 2026, 02:24 UTC

1 56825C 23079C   26258.10048611  .00059753  00000+0  21649-2 0  2581
2 56825  43.0012 116.9966 0001617 279.1389 329.6440 15.27538407    11

Acompanhe STARLINK-30084 em tempo real com AllMySat

Download on the App Store